Fort Eustis, VA

10:56 PM EDT on April 26, 2017 (GMT -0400)
Felker Army Air Field

Weather History for KFAF - February, 2014

Change the Weather History Date:

Friday, February 21, 2014

  Actual Average Record
Temperature  
Mean Temperature 58 °F -  
Max Temperature 72 °F 50 °F 75 °F (1997)
Min Temperature 44 °F 35 °F 9 °F (2015)
Degree Days  
Heating Degree Days 7    
Growing Degree Days 8 (Base 50)    
Moisture  
Dew Point 58 °F    
Average Humidity 84    
Maximum Humidity 94    
Minimum Humidity 72    
Precipitation  
Precipitation 0.32 in - - ()
Sea Level Pressure  
Sea Level Pressure 29.85 in    
Wind  
Wind Speed 10 mph (SW)    
Max Wind Speed 28 mph    
Max Gust Speed 38 mph    
Visibility 9 miles    
Events Rain , Thunderstorm    
Averages and records for this station are not official NWS values.
T = Trace of Precipitation, MM = Missing Value Source: NWS Daily Summary

Daily Weather History Graph

Daily Weather History Graph

Search for Another Location

Airport or City:

Trip Planner

Search our weather history database for the weather conditions in past years. The results will help you decide how hot, cold, wet, or windy it might be!

Date:

Astronomy

Feb. 21, 2014 Rise Set
Actual Time 6:47 AM EST 5:52 PM EST
Civil Twilight 6:21 AM EST 6:18 PM EST
Nautical Twilight 5:51 AM EST 6:49 PM EST
Astronomical Twilight 5:21 AM EST 7:19 PM EST
Moon No Moon Rise 10:19 AM EST (2/21)
Length of Visible Light 11h 57m
Length of Day
11h 04m
Waning Gibbous, 61% of the Moon is Illuminated
Feb 21
Waning Gibbous
Feb 22
Last Quarter
Mar 1
New
Mar 8
First Quarter
Mar 16
Full

Hourly Weather History & Observations

Time (EST) Temp. Dew Point Humidity Pressure Visibility Wind Dir Wind Speed Gust Speed Precip Events Conditions
12:58 AM 62.4 °F 59.7 °F 91% 29.96 in 10.0 mi South 5.8 mph - N/A   Clear
1:58 AM 62.8 °F 59.9 °F 90% 29.94 in 10.0 mi South 9.2 mph - N/A   Partly Cloudy
2:18 AM 62.6 °F 60.8 °F 94% 29.93 in 10.0 mi SSW 9.2 mph - N/A   Mostly Cloudy
2:58 AM 64.0 °F 60.4 °F 88% 29.92 in 10.0 mi South 8.1 mph 17.3 mph N/A   Overcast
3:58 AM 64.6 °F 60.1 °F 85% 29.94 in 10.0 mi SSW 10.4 mph 21.9 mph N/A   Overcast
4:03 AM 64.4 °F 60.8 °F 88% 29.93 in 10.0 mi SSW 8.1 mph 18.4 mph N/A   Overcast
4:08 AM 64.4 °F 60.8 °F 88% 29.93 in 10.0 mi SSW 8.1 mph 17.3 mph N/A   Overcast
4:18 AM 64.4 °F 59.0 °F 83% 29.93 in 10.0 mi SSW 6.9 mph - N/A   Overcast
4:53 AM 64.4 °F 59.0 °F 83% 29.93 in 10.0 mi SSW 8.1 mph - N/A   Overcast
4:58 AM 64.8 °F 59.9 °F 84% 29.93 in 10.0 mi SSW 8.1 mph - N/A   Overcast
5:03 AM 64.4 °F 59.0 °F 83% 29.93 in 10.0 mi SSW 12.7 mph - N/A   Overcast
5:08 AM 64.4 °F 59.0 °F 83% 29.93 in 10.0 mi South 10.4 mph - N/A   Overcast
5:13 AM 64.4 °F 59.0 °F 83% 29.92 in 10.0 mi South 10.4 mph - N/A   Overcast
5:58 AM 64.2 °F 59.9 °F 86% 29.92 in 10.0 mi South 10.4 mph - N/A   Mostly Cloudy
6:18 AM 64.4 °F 59.0 °F 83% 29.90 in 10.0 mi South 6.9 mph - N/A   Mostly Cloudy
6:58 AM 64.0 °F 59.9 °F 86% 29.90 in 10.0 mi South 9.2 mph - N/A   Overcast
7:58 AM 64.2 °F 60.3 °F 87% 29.89 in 10.0 mi South 12.7 mph 17.3 mph N/A   Overcast
8:58 AM 64.4 °F 60.3 °F 86% 29.89 in 10.0 mi SSW 10.4 mph 18.4 mph N/A   Overcast
9:58 AM 66.4 °F 61.3 °F 84% 29.88 in 10.0 mi SSW 12.7 mph 24.2 mph N/A   Overcast
10:58 AM 69.8 °F 62.6 °F 78% 29.83 in 10.0 mi SSW 15.0 mph 24.2 mph N/A   Mostly Cloudy
11:28 AM 69.8 °F 62.6 °F 78% 29.80 in 10.0 mi South 11.5 mph 27.6 mph N/A   Mostly Cloudy
11:33 AM 69.8 °F 62.6 °F 78% 29.79 in 10.0 mi South 16.1 mph 21.9 mph N/A   Mostly Cloudy
11:38 AM 69.8 °F 62.6 °F 78% 29.78 in 10.0 mi South 12.7 mph 21.9 mph N/A   Mostly Cloudy
11:58 AM 72.0 °F 63.0 °F 73% 29.79 in 10.0 mi SSW 13.8 mph 20.7 mph N/A   Scattered Clouds
12:54 PM 71.6 °F 62.6 °F 73% 29.74 in 10.0 mi WSW 13.8 mph 20.7 mph N/A   Scattered Clouds
12:56 PM 71.6 °F 62.6 °F 73% 29.81 in 9.0 mi West 27.6 mph 38.0 mph N/A   Scattered Clouds
12:58 PM 72.3 °F 62.8 °F 72% 29.82 in 0.5 mi West 27.6 mph 33.4 mph N/A Rain Heavy Rain Showers
1:00 PM 71.6 °F 62.6 °F 73% 29.80 in 1.2 mi WSW 23.0 mph 38.0 mph N/A Rain , Thunderstorm Light Thunderstorms and Rain
1:01 PM 71.6 °F 62.6 °F 73% 29.80 in 1.2 mi WSW 19.6 mph 38.0 mph N/A Rain Light Rain
1:02 PM 68.0 °F 59.0 °F 73% 29.80 in 1.0 mi WSW 18.4 mph 38.0 mph N/A Rain , Thunderstorm Light Thunderstorms and Rain
1:03 PM 66.2 °F 59.0 °F 78% 29.80 in 1.0 mi WSW 16.1 mph 38.0 mph N/A Rain , Thunderstorm Heavy Thunderstorms and Rain
1:08 PM 62.6 °F 57.2 °F 82% 29.79 in 1.8 mi SW 11.5 mph 38.0 mph N/A Rain , Thunderstorm Light Thunderstorms and Rain
1:13 PM 62.6 °F 57.2 °F 82% 29.76 in 3.0 mi WSW 11.5 mph 24.2 mph N/A Rain , Thunderstorm Light Thunderstorms and Rain
1:18 PM 60.8 °F 57.2 °F 88% 29.76 in 6.0 mi SW 11.5 mph 23.0 mph N/A Rain Light Rain
1:54 PM 59.0 °F 55.4 °F 88% 29.77 in 10.0 mi WSW 8.1 mph - N/A   Mostly Cloudy
1:58 PM 59.2 °F 56.3 °F 90% 29.78 in 10.0 mi SW 8.1 mph - 0.16 in   Mostly Cloudy
2:01 PM 59.0 °F 57.2 °F 94% 29.76 in 10.0 mi Variable 5.8 mph - N/A   Mostly Cloudy
2:02 PM 59.0 °F 57.2 °F 94% 29.75 in 10.0 mi Variable 5.8 mph - N/A   Light Drizzle
2:58 PM 60.3 °F 57.4 °F 90% 29.76 in 4.0 mi SW 11.5 mph 20.7 mph 0.15 in Rain Light Rain
3:20 PM 60.8 °F 57.2 °F 88% 29.75 in 10.0 mi SW 6.9 mph - N/A Thunderstorm Partly Cloudy
3:58 PM 61.0 °F 58.1 °F 90% 29.79 in 10.0 mi SW 8.1 mph - 0.01 in   Mostly Cloudy
4:08 PM 60.8 °F 59.0 °F 94% 29.79 in 10.0 mi SW 6.9 mph - N/A   Mostly Cloudy
4:58 PM 61.0 °F 58.5 °F 91% 29.82 in 10.0 mi WSW 4.6 mph - N/A   Overcast
5:03 PM 60.8 °F 59.0 °F 94% 29.82 in 10.0 mi WSW 5.8 mph - N/A   Overcast
5:13 PM 60.8 °F 59.0 °F 94% 29.82 in 10.0 mi WSW 6.9 mph - N/A   Overcast
5:58 PM 59.5 °F 54.1 °F 82% 29.85 in 10.0 mi West 5.8 mph - N/A   Overcast
6:33 PM 59.0 °F 53.6 °F 82% 29.86 in 10.0 mi SSW 3.5 mph - N/A   Overcast
6:58 PM 57.9 °F 53.1 °F 84% 29.88 in 10.0 mi WSW 5.8 mph - N/A   Overcast
7:58 PM 56.8 °F 50.9 °F 80% 29.90 in 10.0 mi West 4.6 mph - N/A   Mostly Cloudy
8:59 PM 53.6 °F 47.5 °F 80% 29.94 in 10.0 mi West 5.8 mph - N/A   Clear
9:58 PM 49.8 °F 43.5 °F 79% 29.96 in 10.0 mi West 3.5 mph - N/A   Clear
10:58 PM 44.8 °F 42.4 °F 91% 29.97 in 10.0 mi WNW 2.3 mph - N/A   Clear
11:58 PM 45.9 °F 41.4 °F 84% 29.97 in 10.0 mi NNW 2.3 mph - N/A   Clear